Location: Greenwich
(51.4790°N, 0.0090°E)
Time: 14:40:57
(UTC+01:00)

Altair - Pass Details

Date: 24 June 2025
Orbit: 1502 x 1682 km, 47.2° (Epoch: 19 July)

Event Time Altitude Azimuth Distance (km) Brightness Sun altitude
Rises 22:00:29 0° 212° (SSW) 4,624 9.8 -5.2°
Reaches altitude 10° 22:03:48 10° 204° (SSW) 3,646 9.2 -5.5°
Maximum altitude 22:11:47 35° 143° (SE) 2,251 7.9 -6.3°
Drops below altitude 10° 22:19:55 10° 82° (E) 3,722 9.2 -7.1°
Sets 22:23:19 0° 74° (ENE) 4,731 9.9 -7.4°
